Вернуться в каталог

STARLINK-11237

АктивенСвязьVLEO
NORAD 60934·PAYLOAD·🇺🇸 United States

Запущен Aug 31, 2024 с Vandenberg Space Force Base

Loading…

Ближайшие Пролёты (ближайшие 24 часа)

TLE

СвежийSource: CelesTrak SupGP

Эпоха: Sep 14, 2026, 22:39 UTC

1 60934C 24155L   26257.94423611 -.00061372  00000+0 -50551-3 0  2577
2 60934  53.1562 127.9751 0001183  94.3777 182.6770 15.69741616    16

Отслеживайте STARLINK-11237 в реальном времени с AllMySat

Download on the App Store